Weather History for KNYC - May, 2013

Change the Weather History Date:

Wednesday, May 22, 2013

  Actual Average Record
Temperature  
Mean Temperature 69 °F 64 °F  
Max Temperature 78 °F 72 °F 96 °F (1941)
Min Temperature 59 °F 56 °F 44 °F (1990)
Degree Days  
Heating Degree Days 0 3  
Month to date heating degree days 99 115  
Since 1 July heating degree days 4589 4708  
Cooling Degree Days 4 2  
Month to date cooling degree days 31 30  
Year to date cooling degree days 33 42  
Growing Degree Days 18 (Base 50)    
Moisture  
Dew Point 63 °F    
Average Humidity 79    
Maximum Humidity 90    
Minimum Humidity 68    
Precipitation  
Precipitation 0.00 in 0.15 in 1.25 in (1881)
Month to date precipitation 5.23 2.85  
Year to date precipitation 16.45 18.45  
Snow  
Snow 0.00 in 0.00 in 0.00 in (2002)
Month to date snowfall 0.0 0.0  
Since 1 July snowfall 26.1 25.8  
Snow Depth 0.00 in    
Sea Level Pressure  
Sea Level Pressure 29.90 in    
Wind  
Wind Speed 3 mph (East)    
Max Wind Speed 16 mph    
Max Gust Speed 24 mph    
Visibility 5 miles    
Events      
T = Trace of Precipitation, MM = Missing Value Source: NWS Daily Summary

Daily Weather History Graph

Daily Weather History Graph

Search for Another Location

Airport or City:

Trip Planner

Search our weather history database for the weather conditions in past years. The results will help you decide how hot, cold, wet, or windy it might be!

Date:

Astronomy

May. 22, 2013 Rise Set
Actual Time 5:32 AM EDT 8:13 PM EDT
Civil Twilight 5:00 AM EDT 8:45 PM EDT
Nautical Twilight 4:20 AM EDT 9:25 PM EDT
Astronomical Twilight 3:35 AM EDT 10:10 PM EDT
Moon 5:31 PM EDT (5/22) 3:35 AM EDT (5/22)
Length of Visible Light 15h 44m
Length of Day
14h 40m
Waxing Gibbous, 91% of the Moon is Illuminated
May 22
Waxing Gibbous
May 25
Full
May 31
Last Quarter
Jun 8
New
Jun 16
First Quarter

Hourly Weather History & Observations

Time (EDT) Temp. Dew Point Humidity Pressure Visibility Wind Dir Wind Speed Gust Speed Precip Events Conditions
12:51 AM 73.9 °F 66.0 °F 76% 29.87 in 10.0 mi Variable 3.5 mph - N/A   Clear
1:51 AM 73.0 °F 66.0 °F 79% 29.86 in 9.0 mi Variable 4.6 mph - N/A   Clear
2:51 AM 73.0 °F 66.0 °F 79% 29.85 in 9.0 mi Variable 5.8 mph - N/A   Clear
3:51 AM 72.0 °F 66.0 °F 81% 29.87 in 8.0 mi Calm Calm - N/A   Scattered Clouds
4:07 AM 70.0 °F 64.0 °F 81% 29.90 in 8.0 mi East 5.8 mph - N/A   Mostly Cloudy
4:51 AM 64.9 °F 60.1 °F 84% 29.88 in 7.0 mi ENE 8.1 mph - N/A   Overcast
5:08 AM 64.0 °F 60.1 °F 87% 29.91 in 6.0 mi ENE 8.1 mph - N/A   Overcast
5:16 AM 64.0 °F 59.0 °F 84% 29.92 in 6.0 mi ENE 6.9 mph - N/A   Haze
5:51 AM 62.1 °F 57.0 °F 84% 29.91 in 6.0 mi NE 11.5 mph 20.7 mph N/A   Haze
6:24 AM 59.0 °F 55.9 °F 90% 29.96 in 6.0 mi ENE 11.5 mph 23.0 mph N/A   Overcast
6:51 AM 59.0 °F 55.9 °F 90% 29.94 in 6.0 mi East 10.4 mph 21.9 mph N/A   Overcast
7:33 AM 59.0 °F 55.9 °F 90% 29.96 in 4.0 mi East 6.9 mph - N/A   Overcast
7:51 AM 60.1 °F 55.9 °F 86% 29.93 in 5.0 mi Variable 4.6 mph - N/A   Overcast
8:51 AM 61.0 °F 57.0 °F 87% 29.93 in 4.0 mi Variable 3.5 mph - N/A   Overcast
9:51 AM 64.0 °F 59.0 °F 84% 29.93 in 4.0 mi Calm Calm - N/A   Haze
10:51 AM 66.9 °F 61.0 °F 81% 29.93 in 4.0 mi Calm Calm - N/A   Haze
11:51 AM 70.0 °F 60.1 °F 71% 29.92 in 4.0 mi ENE 4.6 mph - N/A   Haze
12:51 PM 73.0 °F 63.0 °F 71% 29.91 in 4.0 mi Calm Calm - N/A   Haze
1:26 PM 75.9 °F 64.0 °F 67% 29.92 in 4.0 mi Calm Calm - N/A   Haze
1:51 PM 75.9 °F 64.9 °F 69% 29.88 in 4.0 mi Calm Calm - N/A   Haze
2:24 PM 73.9 °F 68.0 °F 82% 29.91 in 3.0 mi SW 4.6 mph - N/A   Haze
2:36 PM 73.9 °F 68.0 °F 82% 29.91 in 2.5 mi SW 4.6 mph - N/A   Haze
2:51 PM 73.9 °F 68.0 °F 82% 29.88 in 2.5 mi Variable 4.6 mph - N/A   Haze
3:21 PM 75.0 °F 68.0 °F 79% 29.91 in 3.0 mi WSW 5.8 mph - N/A   Haze
3:38 PM 75.0 °F 68.0 °F 79% 29.90 in 3.0 mi WSW 3.5 mph - N/A   Haze
3:51 PM 75.9 °F 68.0 °F 76% 29.86 in 4.0 mi Calm Calm - N/A   Haze
4:13 PM 75.9 °F 66.9 °F 74% 29.88 in 4.0 mi Variable 3.5 mph - N/A   Haze
4:51 PM 77.0 °F 68.0 °F 74% 29.86 in 4.0 mi South 5.8 mph - N/A   Haze
5:51 PM 75.9 °F 68.0 °F 76% 29.85 in 4.0 mi Variable 4.6 mph - N/A   Haze
6:51 PM 75.0 °F 68.0 °F 79% 29.85 in 5.0 mi Calm Calm - N/A   Haze
7:51 PM 72.0 °F 64.0 °F 76% 29.85 in 5.0 mi Calm Calm - N/A   Haze
8:51 PM 70.0 °F 64.0 °F 81% 29.86 in 6.0 mi Calm Calm - N/A   Haze
9:51 PM 70.0 °F 64.9 °F 84% 29.88 in 6.0 mi Calm Calm - N/A   Haze
10:51 PM 73.0 °F 66.9 °F 81% 29.88 in 7.0 mi North - - N/A   Clear
11:51 PM 73.0 °F 66.9 °F 81% 29.88 in 7.0 mi Variable 4.6 mph - N/A   Clear